カタログに戻る

YAOGAN-47

運用中軍事SSO
NORAD 66988·PAYLOAD·🇨🇳 China

打ち上げ Dec 9, 2025 から Jiuquan Satellite Launch Center

Loading…

次のパス (今後24時間)

TLE

最新Source: Space-Track

元期: Sep 14, 2026, 03:23 UTC

1 66988U 25289A   26257.14140646  .00004462  00000-0  19067-3 0  9993
2 66988  97.4939 327.3946 0002108 264.7540  95.3456 15.23379487 42471

AllMySatでYAOGAN-47をリアルタイム追跡

Download on the App Store